Date String (YYYY-MM-DD hh:mm:ss) UTC,Instrument flags,absolute air pressure of the measurement (hPa),sample flow rate (lpm),inlet stack bypass flow (lpm),air temperature of the measurement (°C),ambient temperature measured by the external sensor (°C),aerosol sample conditioner tube jacket temperature (°C),OPC LED temperature (°C),internal box temperature (°C),relative humidity of the measurement (%),span deviation,mass concentration of particles derived from Lorenz-Mie calculation of OPC scattering (μg/m³),mass concentration of particles derived from Lorenz-Mie calculation of OPC scattering (μg/m³),mass concentration of particles derived from Lorenz-Mie calculation of OPC scattering (μg/m³)
DateTimeUTC,F1_M11,P_M11,Q1_M11,Q2_M11,T1_M11,T2_M11,T3_M11,T4_M11,T5_M11,U1_M11,ZSPAN_M11,X2_M11,X0_M11,X1_M11
2024-02-26 01:00:00,SystemResetWarning,0822.0,5.00,000.00,023.1,022.1,000.0,031.4,024.7,07.7,0000.0,0001.72,0004.79,0000.87
2024-02-26 01:01:00,SystemResetWarning,0822.1,5.00,000.00,023.1,022.1,000.0,031.4,024.7,07.8,0000.0,0001.74,0004.57,0000.86
2024-02-26 01:02:00,SystemResetWarning,0822.1,5.01,000.00,023.1,022.1,000.0,031.4,024.7,07.7,0000.0,0001.79,0004.12,0000.85
2024-02-26 01:03:00,SystemResetWarning,0822.1,5.00,000.00,023.0,022.1,000.0,031.4,024.7,07.8,0000.0,0001.70,0003.83,0000.84
2024-02-26 01:04:00,SystemResetWarning,0822.0,5.00,000.00,023.0,022.1,000.0,031.4,024.7,07.7,0000.0,0001.69,0003.82,0000.84
2024-02-26 01:05:00,SystemResetWarning,0821.9,5.00,000.00,023.0,022.1,000.0,031.4,024.7,07.7,0000.0,0001.73,0003.80,0000.86
2024-02-26 01:06:00,SystemResetWarning,0821.9,4.99,000.00,023.0,022.1,000.0,031.3,024.7,07.6,0000.0,0001.73,0003.68,0000.86
2024-02-26 01:07:00,SystemResetWarning,0821.9,4.99,000.00,023.0,022.1,000.0,031.3,024.7,07.6,0000.0,0001.78,0003.91,0000.85
2024-02-26 01:08:00,SystemResetWarning,0822.0,5.00,000.00,023.0,022.1,000.0,031.3,024.7,07.6,0000.0,0001.77,0003.90,0000.85
2024-02-26 01:09:00,SystemResetWarning,0822.1,5.01,000.00,023.0,022.1,000.0,031.3,024.7,07.6,0000.0,0001.77,0003.82,0000.84
2024-02-26 01:10:00,SystemResetWarning,0822.0,5.01,000.00,023.0,022.1,000.0,031.3,024.7,07.7,0000.0,0001.74,0003.76,0000.84
2024-02-26 01:11:00,SystemResetWarning,0821.9,5.00,000.00,023.0,022.1,000.0,031.3,024.6,07.6,0000.0,0001.75,0003.83,0000.84
2024-02-26 01:12:00,SystemResetWarning,0821.8,4.98,000.00,023.0,022.1,000.0,031.3,024.6,07.5,0000.0,0001.78,0003.84,0000.85
2024-02-26 01:13:00,SystemResetWarning,0821.9,5.01,000.00,023.0,022.0,000.0,031.3,024.6,07.4,0000.0,0001.78,0003.85,0000.85
2024-02-26 01:14:00,SystemResetWarning,0822.0,5.01,000.00,022.9,022.0,000.0,031.3,024.6,07.4,0000.0,0001.80,0003.85,0000.86
2024-02-26 01:15:00,SystemResetWarning,0822.0,5.00,000.00,022.9,022.0,000.0,031.3,024.6,07.5,0000.0,0001.84,0004.39,0000.88
2024-02-26 01:16:00,SystemResetWarning,0822.1,5.01,000.00,022.9,022.0,000.0,031.3,024.6,07.4,0000.0,0001.84,0005.11,0000.87
2024-02-26 01:17:00,SystemResetWarning,0822.1,5.00,000.00,022.9,022.0,000.0,031.3,024.6,07.4,0000.0,0001.83,0005.17,0000.86
2024-02-26 01:18:00,SystemResetWarning,0822.1,4.99,000.00,022.9,022.0,000.0,031.3,024.6,07.5,0000.0,0001.74,0005.15,0000.85
2024-02-26 01:19:00,SystemResetWarning,0822.1,4.99,000.00,022.9,022.0,000.0,031.2,024.6,07.5,0000.0,0001.74,0005.58,0000.86
2024-02-26 01:20:00,SystemResetWarning,0822.1,5.00,000.00,022.9,022.0,000.0,031.2,024.6,07.5,0000.0,0001.76,0005.81,0000.86
2024-02-26 01:21:00,SystemResetWarning,0822.0,5.01,000.00,022.9,022.0,000.0,031.2,024.6,07.4,0000.0,0001.81,0005.87,0000.86
2024-02-26 01:22:00,SystemResetWarning,0822.0,5.01,000.00,022.9,022.0,000.0,031.2,024.5,07.4,0000.0,0001.81,0005.99,0000.87
2024-02-26 01:23:00,SystemResetWarning,0822.1,5.00,000.00,022.9,022.0,000.0,031.2,024.5,07.4,0000.0,0001.86,0008.00,0000.87
2024-02-26 01:24:00,SystemResetWarning,0822.1,5.00,000.00,022.9,022.0,000.0,031.2,024.5,07.5,0000.0,0001.87,0008.30,0000.86
2024-02-26 01:25:00,SystemResetWarning,0821.9,4.99,000.00,022.9,022.0,000.0,031.2,024.5,07.4,0000.0,0001.85,0008.32,0000.86
2024-02-26 01:26:00,SystemResetWarning,0822.0,5.00,000.00,022.9,022.0,000.0,031.2,024.5,07.4,0000.0,0001.75,0007.96,0000.86
2024-02-26 01:27:00,SystemResetWarning,0822.0,4.99,000.00,022.8,021.9,000.0,031.2,024.5,07.3,0000.0,0001.74,0008.05,0000.86
2024-02-26 01:28:00,SystemResetWarning,0821.9,5.00,000.00,022.8,021.9,000.0,031.2,024.5,07.3,0000.0,0001.78,0008.54,0000.85
2024-02-26 01:29:00,SystemResetWarning,0822.0,5.02,000.00,022.8,021.9,000.0,031.2,024.4,07.4,0000.0,0001.88,0008.54,0000.87
2024-02-26 01:30:00,SystemResetWarning,0822.0,5.01,000.00,022.8,021.9,000.0,031.1,024.4,07.4,0000.0,0001.89,0008.26,0000.88
2024-02-26 01:31:00,SystemResetWarning,0822.2,5.00,000.00,022.8,021.9,000.0,031.1,024.4,07.4,0000.0,0001.84,0008.12,0000.87
2024-02-26 01:32:00,SystemResetWarning,0822.0,5.00,000.00,022.8,021.9,000.0,031.1,024.4,07.4,0000.0,0001.83,0008.13,0000.87
2024-02-26 01:33:00,SystemResetWarning,0822.0,4.99,000.00,022.8,021.9,000.0,031.1,024.4,07.3,0000.0,0001.86,0008.08,0000.88
2024-02-26 01:34:00,SystemResetWarning,0822.2,5.00,000.00,022.8,021.8,000.0,031.1,024.4,07.4,0000.0,0001.86,0006.46,0000.87
2024-02-26 01:35:00,SystemResetWarning,0822.2,5.00,000.00,022.8,021.8,000.0,031.1,024.4,07.4,0000.0,0001.82,0006.14,0000.87
2024-02-26 01:36:00,SystemResetWarning,0821.9,5.00,000.00,022.7,021.8,000.0,031.1,024.4,07.4,0000.0,0001.84,0006.26,0000.86
2024-02-26 01:37:00,SystemResetWarning,0822.1,5.00,000.00,022.7,021.8,000.0,031.1,024.4,07.3,0000.0,0001.88,0006.97,0000.86
2024-02-26 01:38:00,SystemResetWarning,0822.0,5.00,000.00,022.7,021.8,000.0,031.1,024.4,07.3,0000.0,0001.88,0006.24,0000.87
2024-02-26 01:39:00,SystemResetWarning,0822.0,5.01,000.00,022.7,021.8,000.0,031.1,024.4,07.4,0000.0,0001.84,0005.34,0000.87
2024-02-26 01:40:00,SystemResetWarning,0822.1,5.00,000.00,022.7,021.8,000.0,031.0,024.3,07.4,0000.0,0001.77,0005.15,0000.87
2024-02-26 01:41:00,SystemResetWarning,0821.9,4.99,000.00,022.7,021.8,000.0,031.0,024.3,07.3,0000.0,0001.74,0005.13,0000.87
2024-02-26 01:42:00,SystemResetWarning,0822.0,5.01,000.00,022.7,021.7,000.0,031.0,024.3,07.3,0000.0,0001.78,0005.36,0000.87
2024-02-26 01:43:00,SystemResetWarning,0821.9,5.00,000.00,022.7,021.7,000.0,031.0,024.3,07.3,0000.0,0001.79,0005.34,0000.88
2024-02-26 01:44:00,SystemResetWarning,0822.0,5.00,000.00,022.7,021.7,000.0,031.0,024.3,07.4,0000.0,0001.80,0005.34,0000.89
2024-02-26 01:45:00,SystemResetWarning,0822.0,5.00,000.00,022.6,021.7,000.0,031.0,024.3,07.3,0000.0,0001.70,0005.89,0000.90
2024-02-26 01:46:00,SystemResetWarning,0822.0,5.00,000.00,022.6,021.7,000.0,031.0,024.3,07.5,0000.0,0001.70,0005.97,0000.91
2024-02-26 01:47:00,SystemResetWarning,0821.9,5.00,000.00,022.6,021.7,000.0,031.0,024.3,07.5,0000.0,0001.75,0006.14,0000.91
2024-02-26 01:48:00,SystemResetWarning,0822.0,5.00,000.00,022.6,021.6,000.0,031.0,024.2,07.4,0000.0,0001.78,0005.78,0000.91
2024-02-26 01:49:00,SystemResetWarning,0822.0,5.00,000.00,022.6,021.6,000.0,030.9,024.2,07.5,0000.0,0001.77,0005.42,0000.91
2024-02-26 01:50:00,SystemResetWarning,0822.0,5.00,000.00,022.6,021.6,000.0,030.9,024.2,07.5,0000.0,0001.75,0005.47,0000.91
2024-02-26 01:51:00,SystemResetWarning,0822.1,5.01,000.00,022.6,021.6,000.0,030.9,024.2,07.5,0000.0,0001.73,0005.33,0000.91
2024-02-26 01:52:00,SystemResetWarning,0822.1,5.01,000.00,022.6,021.6,000.0,030.9,024.2,07.6,0000.0,0001.74,0005.18,0000.91
2024-02-26 01:53:00,SystemResetWarning,0821.9,5.00,000.00,022.6,021.6,000.0,030.9,024.2,07.5,0000.0,0001.76,0005.14,0000.92
2024-02-26 01:54:00,SystemResetWarning,0822.0,5.00,000.00,022.5,021.6,000.0,030.9,024.1,07.5,0000.0,0001.76,0005.19,0000.93
2024-02-26 01:55:00,SystemResetWarning,0822.2,5.00,000.00,022.5,021.6,000.0,030.9,024.1,07.6,0000.0,0001.76,0005.33,0000.94
2024-02-26 01:56:00,SystemResetWarning,0822.2,5.00,000.00,022.5,021.6,000.0,030.9,024.1,07.7,0000.0,0001.79,0004.49,0000.94
2024-02-26 01:57:00,SystemResetWarning,0822.1,5.00,000.00,022.5,021.6,000.0,030.9,024.1,07.7,0000.0,0001.80,0004.20,0000.94
2024-02-26 01:58:00,SystemResetWarning,0822.2,5.00,000.00,022.5,021.5,000.0,030.8,024.1,07.7,0000.0,0001.76,0003.86,0000.95
2024-02-26 01:59:00,SystemResetWarning,0822.2,5.00,000.00,022.5,021.5,000.0,030.8,024.1,07.8,0000.0,0001.77,0003.89,0000.96
